Location: Rounton
(54.4000°N, 1.3500°W)
Time: 20:27:22
(UTC+01:00)

YAOGAN 20A - Pass Details

Date: 05 July 2022
Orbit: 891 x 1288 km, 63.4° (Epoch: 18 August)

Event Time Altitude Azimuth Distance (km) Brightness Sun altitude
Rises 03:00:42 0° 306° (NW) 3,926 8.2 -9.2°
Reaches altitude 10° 03:04:39 10° 285° (WNW) 3,046 7.4 -9.0°
Maximum altitude 03:08:23 15° 254° (WSW) 2,758 6.9 -8.7°
Drops below altitude 10° 03:12:14 10° 223° (SW) 3,172 6.9 -8.5°
Enters shadow 03:12:39 - 220° (SW) 3,250 7.0 -8.4°
